Regional Weather Roundup
Issued by NWS

Home | Current Version | Previous Version | Graphics & Text | Print | Product List | Glossary On
Versions: 1 2 3 4 5 6 7 8 9 10 11 12 13 14 15 16 17 18 19 20 21 22 23 24 25 26 27 28 29 30 31 32 33 34 35 36 37 38 39 40 41 42 43 44 45 46 47 48 49 50
000
ASUS45 KTFX 040810
RWRMT
MONTANA REGIONAL WEATHER ROUNDUP
NATIONAL WEATHER SERVICE GREAT FALLS MT
200 AM MDT TUE AUG 04 2015

NOTE: "FAIR" INDICATES FEW OR NO CLOUDS BELOW 12000 FEET WITH NO
SIGNIFICANT WEATHER AND/OR OBSTRUCTIONS TO VISIBILITY.

MTZ001>007-043-040900-
WEST OF THE DIVIDE

CITY           SKY/WX    TMP DP  RH WIND       PRES   REMARKS
KALISPELL      CLOUDY    71  43  36 CALM      29.86R
MISSOULA       CLOUDY    72  42  34 W3        29.91R
BUTTE          CLOUDY    68  47  46 W3        30.08R
MULLAN PASS    CLOUDY    60  40  47 CALM      30.08R
DEER LODGE       N/A     68  45  42 CALM      30.04R
EUREKA           N/A     75  46  35 NW14      29.89R
HAMILTON         N/A     68  45  42 CALM      29.93R
LIBBY            N/A     70  54  56 SE3       29.89R
PLAINS           N/A     71  43  36 CALM      29.89R
$$

MTZ008-052>055-040900-
SOUTHWEST MONTANA

CITY           SKY/WX    TMP DP  RH WIND       PRES   REMARKS
BOZEMAN        CLOUDY    67  51  56 S7        30.00R
DILLON         LGT RAIN  62  53  72 W6        30.05R
W YELLOWSTONE  CLOUDY    54  54 100 SW5       30.17F
$$

MTZ009-010-012-014-046-048-049-054-040900-
EAST SLOPES AND CENTRAL MONTANA

CITY           SKY/WX    TMP DP  RH WIND       PRES   REMARKS
CUT BANK       CLOUDY    77  36  22 W18       29.81R
GREAT FALLS    CLOUDY    71  44  37 SW13      29.82S
MALMSTROM AFB  MOCLDY    72  49  45 S12       29.82S
HELENA         MOCLDY    80  40  23 S8        29.92R
CONRAD           N/A     65  54  67 SE2       29.87R
$$

MTZ011-013-016-021-045-047-050-051-040900-
NORTH CENTRAL MONTANA

CITY           SKY/WX    TMP DP  RH WIND       PRES   REMARKS
HAVRE          PTCLDY    73  49  42 E14       29.77F
LEWISTOWN      CLEAR     69  46  43 E9        29.89S
CHINOOK          N/A     66  52  59 E12       29.81S
FORT BENTON      N/A     77  48  36 SE5       29.78S
$$

MTZ017>020-022>027-061-062-040900-
NORTHEAST MONTANA

CITY           SKY/WX    TMP DP  RH WIND       PRES   REMARKS
GLASGOW        PTCLDY    67  46  47 E17       29.88F
JORDAN           N/A     67  46  47 E7        29.87F
SIDNEY         CLEAR    N/A N/A N/A N5        29.94F
WOLF POINT     PTCLDY    62  47  57 NE9       29.92F
MALTA            N/A     71  48  43 NE6       29.84R
POPLAR           N/A     63  48  59 NE3       29.93S
$$

MTZ028>42-056>058-040900-
SOUTHCENTRAL AND SOUTHEAST MONTANA

CITY           SKY/WX    TMP DP  RH WIND       PRES   REMARKS
BAKER          CLOUDY    65  51  60 E12       29.96F
BILLINGS       CLOUDY    77  46  33 SW9       29.88F
LIVINGSTON     MOCLDY    74  46  36 SW21      29.96R
MILES CITY     MOCLDY    73  53  49 SE3       29.89R
FORSYTH          N/A     72  54  53 E9        29.84S
LAUREL           N/A     74  45  35 SW9       29.88F
$$

REGIONAL REPORTS...DAKOTAS

CITY           SKY/WX    TMP DP  RH WIND       PRES   REMARKS
WILLISTON      CLEAR     65  51  60 CALM      29.97S
MINOT          CLEAR     57  50  77 W3        29.97S
DICKINSON      CLEAR     54  49  83 E8        29.97S
CROSBY         FAIR      50  50 100 SE3       29.99S
BISMARCK       CLEAR     56  49  77 E3        29.98S
GRAND FORKS    CLEAR     50  48  93 NW5       29.94S
FARGO          CLEAR     56  49  77 SW5       29.95R
BUFFALO SD       N/A     67  52  58 E10       29.90F
RAPID CITY     CLOUDY    68  59  73 E12       29.95F
$$

REGIONAL REPORTS...WYOMING/IDAHO/WASHINGTON

CITY           SKY/WX    TMP DP  RH WIND       PRES   REMARKS
GILLETTE       CLOUDY    65  50  58 S5        29.96F
SHERIDAN       MOCLDY    73  45  36 NE7       29.89R
BUFFALO WY     CLOUDY    67  49  52 SE9       29.99R
CODY           CLOUDY    64  52  63 SW3       29.98S
YELLOWSTONE LA   N/A     50  48  93 CALM      30.24F
IDAHO FALLS    CLOUDY    63  55  75 SE5       30.09S
SALMON         CLOUDY    64  46  52 CALM      29.95R
BOISE          LGT RAIN  72  51  47 NW29G39   29.98R
SPOKANE        CLOUDY    75  47  36 SW9       29.88R
$$

REGIONAL REPORTS...ALBERTA

CITY           SKY/WX    TMP DP  RH WIND       PRES   REMARKS
EDMONTON       LGT RAIN  68  55  64 SE7       29.73S
CALGARY        MOCLDY    72  48  43 NW6       29.84S
LETHBRIDGE     MOCLDY    68  55  64 W25G31    29.73S
MEDICINE HAT   MOCLDY    79  48  34 S22G31    29.72F
WATERTON GATE    N/A     73  39  29 SW13G20     N/A
MILK RIVER       N/A     73  45  35 S6          N/A
ONEFOUR          N/A     64  48  55 E15         N/A
$$

REGIONAL REPORTS...SASKATCHEWAN

CITY           SKY/WX    TMP DP  RH WIND       PRES   REMARKS
SWIFT CURRENT  CLEAR     61  54  77 SE16      29.90F
REGINA         CLEAR     59  50  72 E9        29.99S
SASKATOON      PTCLDY    64  52  63 SE9       29.97F
CYPRESS HILLS    N/A     63  43  48 SE12G18     N/A
VAL MARIE        N/A     64  46  52 SE16        N/A
ROCKGLEN         N/A     59  48  67 SE10        N/A
ASSINIBOIA       N/A     68  55  64 SE13G20     N/A
$$


USA.gov is the U.S. government's official web portal to all federal, state and local government web resources and services.